Weather History for Mansfield, OH

Change the Weather History Date:

Sunday, March 3, 2013

  Actual Average Record
Temperature  
Mean Temperature 21 °F 32 °F  
Max Temperature 25 °F 41 °F 70 °F (1976)
Min Temperature 16 °F 24 °F -2 °F (1925)
Degree Days  
Heating Degree Days 44 33  
Month to date heating degree days 121 99  
Since 1 July heating degree days 4494 4724  
Cooling Degree Days 0 0  
Month to date cooling degree days 0 0  
Year to date cooling degree days 0 0  
Moisture  
Dew Point 17 °F    
Average Humidity 76    
Maximum Humidity 92    
Minimum Humidity 60    
Precipitation  
Precipitation 0.01 in 0.09 in 0.78 in (1953)
Month to date precipitation 0.09 0.27  
Year to date precipitation 4.82 5.53  
Snow  
Snow 0.30 in 0.30 in - ()
Month to date snowfall 1.9 1.0  
Since 1 July snowfall 31.7 38.9  
Snow Depth 2.00 in    
Sea Level Pressure  
Sea Level Pressure 30.00 in    
Wind  
Wind Speed 7 mph (WNW)    
Max Wind Speed 14 mph    
Max Gust Speed 17 mph    
Visibility 6 miles    
Events Snow    
T = Trace of Precipitation, MM = Missing Value Source: NWS Daily Summary

Daily Weather History Graph

Daily Weather History Graph

Search for Another Location

Airport:

Trip Planner

Search our weather history database for the weather conditions in past years. The results will help you decide how hot, cold, wet, or windy it might be!

Date:

Astronomy

Mar. 03, 2013 Rise Set
Actual Time 7:00 AM EST 6:23 PM EST
Civil Twilight 6:33 AM EST 6:51 PM EST
Nautical Twilight 6:01 AM EST 7:23 PM EST
Astronomical Twilight 5:29 AM EST 7:54 PM EST
Moon 12:03 AM EST (3/3) 10:12 AM EST (3/3)
Length of Visible Light 12h 18m
Length of Day
11h 23m
Waning Gibbous, 64% of the Moon is Illuminated
Mar 3
Waning Gibbous
Mar 4
Last Quarter
Mar 11
New
Mar 19
First Quarter
Mar 27
Full

Hourly Weather History & Observations

Time (EST) Temp. Windchill Dew Point Humidity Pressure Visibility Wind Dir Wind Speed Gust Speed Precip Events Conditions
12:25 AM 23.0 °F 13.9 °F 19.4 °F 86% 29.98 in 7.0 mi WNW 8.1 mph - 0.00 in   Overcast
12:52 AM 23.0 °F 14.7 °F 19.4 °F 86% 29.98 in 8.0 mi NW 6.9 mph - N/A   Overcast
1:00 AM 23.0 °F 13.1 °F 19.4 °F 86% 29.98 in 8.0 mi NW 9.2 mph - N/A   Overcast
1:31 AM 23.0 °F 13.9 °F 19.4 °F 86% 29.99 in 4.0 mi WNW 8.1 mph - 0.00 in Snow Light Snow
1:47 AM 21.2 °F 12.6 °F 19.4 °F 93% 29.99 in 5.0 mi WNW 6.9 mph - 0.00 in   Overcast
1:52 AM 21.9 °F 13.4 °F 19.9 °F 92% 30.04 in 3.0 mi WNW 6.9 mph - 0.00 in Snow Light Snow
2:00 AM 21.2 °F 12.6 °F 19.4 °F 93% 29.98 in 2.0 mi WNW 6.9 mph - 0.00 in Snow Light Snow
2:28 AM 21.2 °F 11.7 °F 19.4 °F 93% 29.98 in 2.0 mi NW 8.1 mph - 0.01 in Snow Light Snow
2:52 AM 21.9 °F 11.0 °F 19.0 °F 89% 30.02 in 2.5 mi NW 10.4 mph - 0.01 in Snow Light Snow
3:21 AM 21.2 °F 14.9 °F 19.4 °F 93% 29.97 in 2.0 mi West 4.6 mph - 0.00 in Snow Light Snow
3:34 AM 21.2 °F 12.6 °F 17.6 °F 86% 29.96 in 2.5 mi West 6.9 mph - 0.00 in Snow Light Snow
3:42 AM 21.2 °F 14.9 °F 19.4 °F 93% 29.96 in 3.0 mi WNW 4.6 mph - 0.00 in Snow Light Snow
3:50 AM 21.2 °F 13.6 °F 19.4 °F 93% 29.96 in 2.5 mi West 5.8 mph - 0.00 in Snow Light Snow
3:52 AM 21.0 °F 14.6 °F 19.0 °F 92% 30.02 in 3.0 mi West 4.6 mph - 0.00 in Snow Light Snow
4:22 AM 21.2 °F 13.6 °F 19.4 °F 93% 29.96 in 5.0 mi WNW 5.8 mph - N/A Snow Light Snow
4:52 AM 21.0 °F 14.6 °F 18.0 °F 88% 30.01 in 4.0 mi WNW 4.6 mph - 0.00 in Snow Light Snow
4:59 AM 21.2 °F 14.9 °F 17.6 °F 86% 29.96 in 4.0 mi WNW 4.6 mph - 0.00 in Snow Light Snow
5:42 AM 21.2 °F 13.6 °F 17.6 °F 86% 29.97 in 4.0 mi WNW 5.8 mph - 0.00 in Snow Light Snow
5:52 AM 21.2 °F 14.9 °F 17.6 °F 86% 29.97 in 7.0 mi WNW 4.6 mph - N/A Snow Light Snow
6:00 AM 21.2 °F 16.4 °F 17.6 °F 86% 29.97 in 6.0 mi WNW 3.5 mph - N/A   Overcast
6:08 AM 21.2 °F 16.4 °F 17.6 °F 86% 29.97 in 8.0 mi WNW 3.5 mph - N/A   Overcast
6:26 AM 19.4 °F 11.5 °F 17.6 °F 93% 29.97 in 5.0 mi WNW 5.8 mph - 0.00 in Snow Light Snow
6:52 AM 19.4 °F 11.5 °F 17.6 °F 93% 29.97 in 7.0 mi WNW 5.8 mph - N/A Snow Light Snow
7:20 AM 21.2 °F 16.4 °F 17.6 °F 86% 29.97 in 2.5 mi WNW 3.5 mph - 0.00 in Snow Light Snow
7:29 AM 21.2 °F 13.6 °F 17.6 °F 86% 29.97 in 3.0 mi WNW 5.8 mph - 0.00 in Snow Light Snow
7:38 AM 21.2 °F 12.6 °F 17.6 °F 86% 29.98 in 2.5 mi WNW 6.9 mph - 0.00 in Snow Light Snow
7:47 AM 21.2 °F 12.6 °F 17.6 °F 86% 29.98 in 1.2 mi WNW 6.9 mph - 0.00 in Snow Light Snow
7:52 AM 21.0 °F 11.4 °F 18.0 °F 88% 30.04 in 1.8 mi WNW 8.1 mph - 0.00 in Snow Light Snow
7:57 AM 21.2 °F 12.6 °F 17.6 °F 86% 29.98 in 3.0 mi WNW 6.9 mph - 0.00 in Snow Light Snow
8:47 AM 21.2 °F 10.1 °F 17.6 °F 86% 29.98 in 4.0 mi NW 10.4 mph - 0.00 in Snow Light Snow
8:52 AM 21.0 °F 9.9 °F 17.1 °F 85% 30.04 in 4.0 mi NW 10.4 mph - 0.00 in Snow Light Snow
9:01 AM 21.2 °F 10.1 °F 17.6 °F 86% 29.98 in 4.0 mi NW 10.4 mph - 0.00 in Snow Light Snow
9:43 AM 21.2 °F 8.9 °F 15.8 °F 80% 29.99 in 7.0 mi NW 12.7 mph - 0.00 in Snow Light Snow
9:52 AM 21.2 °F 8.9 °F 14.0 °F 74% 29.98 in 9.0 mi WNW 12.7 mph - N/A   Overcast
10:15 AM 21.2 °F 12.6 °F 12.2 °F 68% 29.98 in 10.0 mi West 6.9 mph - N/A   Overcast
10:52 AM 23.0 °F 12.4 °F 12.9 °F 65% 30.04 in 8.0 mi WNW 10.4 mph - 0.00 in Snow Light Snow
10:59 AM 21.2 °F 12.6 °F 14.0 °F 74% 29.99 in 3.0 mi West 6.9 mph - 0.00 in Snow Light Snow
11:06 AM 23.0 °F 17.0 °F 15.8 °F 74% 29.99 in 3.0 mi Variable 4.6 mph - 0.00 in Snow Light Snow
11:22 AM 23.0 °F 13.1 °F 15.8 °F 74% 29.99 in 2.5 mi West 9.2 mph - 0.00 in Snow Light Snow
11:36 AM 24.8 °F 16.9 °F 15.8 °F 69% 29.99 in 6.0 mi WNW 6.9 mph - 0.00 in Snow Light Snow
11:52 AM 24.1 °F 16.0 °F 15.1 °F 69% 30.04 in 9.0 mi WNW 6.9 mph - 0.00 in   Overcast
12:52 PM 24.1 °F 14.4 °F 12.9 °F 62% 30.03 in 9.0 mi WNW 9.2 mph - N/A   Overcast
1:08 PM 23.0 °F 12.4 °F 15.8 °F 74% 29.97 in 7.0 mi NW 10.4 mph - 0.00 in Snow Light Snow
1:52 PM 23.0 °F 13.9 °F 17.1 °F 78% 30.01 in 2.0 mi West 8.1 mph - 0.00 in Snow Light Snow
1:58 PM 24.8 °F 16.9 °F 15.8 °F 69% 29.96 in 5.0 mi WNW 6.9 mph - 0.00 in Snow Light Snow
2:09 PM 24.8 °F 16.9 °F 15.8 °F 69% 29.96 in 6.0 mi WNW 6.9 mph - 0.00 in Snow Light Snow
2:24 PM 24.8 °F 17.9 °F 15.8 °F 69% 29.95 in 9.0 mi West 5.8 mph - 0.00 in   Overcast
2:52 PM 24.1 °F 15.2 °F 16.0 °F 71% 30.01 in 8.0 mi WNW 8.1 mph - 0.00 in Snow Light Snow
3:07 PM 24.8 °F 15.3 °F 15.8 °F 69% 29.96 in 8.0 mi West 9.2 mph - 0.00 in   Overcast
3:52 PM 23.0 °F 13.1 °F 16.0 °F 74% 30.02 in 8.0 mi NW 9.2 mph - 0.00 in Snow Light Snow
4:52 PM 24.1 °F 16.0 °F 15.1 °F 69% 30.03 in 10.0 mi WNW 6.9 mph - 0.00 in   Overcast
5:52 PM 23.0 °F 13.9 °F 14.0 °F 68% 30.04 in 10.0 mi WNW 8.1 mph - N/A   Overcast
6:25 PM 21.2 °F 16.4 °F 12.2 °F 68% 29.99 in 10.0 mi WNW 3.5 mph - N/A   Mostly Cloudy
6:52 PM 19.9 °F 14.9 °F 12.0 °F 71% 30.05 in 10.0 mi WNW 3.5 mph - N/A   Scattered Clouds
7:52 PM 18.0 °F - 12.9 °F 81% 30.06 in 10.0 mi Calm Calm - N/A   Clear
8:52 PM 19.9 °F 14.9 °F 15.1 °F 81% 30.07 in 10.0 mi WSW 3.5 mph - N/A   Overcast
9:52 PM 19.9 °F 14.9 °F 12.9 °F 74% 30.07 in 10.0 mi West 3.5 mph - N/A   Scattered Clouds
10:52 PM 19.0 °F 13.9 °F 12.9 °F 77% 30.07 in 10.0 mi WSW 3.5 mph - N/A   Mostly Cloudy
11:52 PM 17.6 °F 10.7 °F 12.2 °F 79% 30.01 in 10.0 mi WSW 4.6 mph - N/A   Clear